| time (UTC) | temp F | wind direction | speed MPH | gust MPH | rain 1hr in | rain 24hr in | rain mn in | humidity % | barometer mb |
| 20260831132029 | 64 | 104 | 2.0 | 6.0 | 0.00 | 0.00 | 0.00 | 82 | 1013.4 |
| 20260831131925 | 64 | 104 | 3.0 | 6.0 | 0.00 | 0.00 | 0.00 | 79 | 1013.4 |
| 20260831131919 | 64 | 104 | 3.0 | 6.0 | 0.00 | 0.00 | 0.00 | 79 | 1013.4 |
| 20260831131029 | 63 | 104 | 1.0 | 3.0 | 0.00 | 0.00 | 0.00 | 86 | 1013.4 |
| 20260831125920 | 63 | 104 | 1.0 | 3.0 | 0.00 | 0.00 | 0.00 | 86 | 1013.2 |
| 20260831125420 | 63 | 104 | 3.0 | 8.0 | 0.00 | 0.00 | 0.00 | 88 | 1013.2 |
| 20260831124920 | 63 | 104 | 4.0 | 8.0 | 0.00 | 0.00 | 0.00 | 87 | 1013.5 |
| 20260831124421 | 63 | 96 | 5.0 | 8.0 | 0.00 | 0.00 | 0.00 | 87 | 1013.4 |
| 20260831123924 | 63 | 98 | 5.0 | 8.0 | 0.00 | 0.00 | 0.00 | 88 | 1013.2 |
| 20260831123918 | 63 | 98 | 6.0 | 9.0 | 0.00 | 0.00 | 0.00 | 88 | 1013.4 |
| 20260831122918 | 63 | 92 | 6.0 | 9.0 | 0.00 | 0.00 | 0.00 | 88 | 1013.2 |
| 20260831122418 | 63 | 98 | 7.0 | 9.0 | 0.00 | 0.00 | 0.00 | 87 | 1013.2 |
| 20260831121918 | 63 | 105 | 8.0 | 9.0 | 0.00 | 0.00 | 0.00 | 87 | 1013.2 |
| 20260831121418 | 64 | 111 | 8.0 | 9.0 | 0.00 | 0.00 | 0.00 | 85 | 1013.2 |
| 20260831120918 | 64 | 111 | 8.0 | 9.0 | 0.00 | 0.00 | 0.00 | 83 | 1013.1 |
| 20260831120418 | 64 | 113 | 8.0 | 9.0 | 0.00 | 0.00 | 0.00 | 79 | 1013.1 |
| 20260831115918 | 64 | 114 | 7.0 | 9.0 | 0.00 | 0.00 | 0.00 | 74 | 1013.0 |
| 20260831115418 | 64 | 119 | 7.0 | 8.0 | 0.00 | 0.00 | 0.00 | 72 | 1013.1 |
| 20260831114917 | 64 | 117 | 8.0 | 9.0 | 0.00 | 0.00 | 0.00 | 72 | 1013.1 |
| 20260831114415 | 64 | 117 | 7.0 | 9.0 | 0.00 | 0.00 | 0.00 | 71 | 1013.1 |
| 20260831113916 | 64 | 122 | 7.0 | 9.0 | 0.00 | 0.00 | 0.00 | 69 | 1013.0 |
| 20260831113416 | 64 | 120 | 7.0 | 9.0 | 0.00 | 0.00 | 0.00 | 70 | 1013.1 |
| 20260831112916 | 64 | 118 | 7.0 | 9.0 | 0.00 | 0.00 | 0.00 | 72 | 1013.1 |
| 20260831112415 | 64 | 111 | 7.0 | 9.0 | 0.00 | 0.00 | 0.00 | 72 | 1013.1 |
| 20260831111916 | 64 | 119 | 6.0 | 8.0 | 0.00 | 0.00 | 0.00 | 71 | 1013.1 |
| 20260831111414 | 64 | 111 | 7.0 | 10.0 | 0.00 | 0.00 | 0.00 | 72 | 1013.2 |
| 20260831110914 | 64 | 107 | 6.0 | 10.0 | 0.00 | 0.00 | 0.00 | 72 | 1013.4 |
| 20260831110414 | 65 | 122 | 6.0 | 10.0 | 0.00 | 0.00 | 0.00 | 72 | 1013.4 |
| 20260831105912 | 65 | 111 | 8.0 | 10.0 | 0.00 | 0.00 | 0.00 | 72 | 1013.4 |
| 20260831105410 | 65 | 105 | 7.0 | 9.0 | 0.00 | 0.00 | 0.00 | 73 | 1013.4 |
| 20260831104910 | 65 | 99 | 7.0 | 10.0 | 0.00 | 0.00 | 0.00 | 74 | 1013.4 |
| 20260831104409 | 65 | 101 | 7.0 | 10.0 | 0.00 | 0.00 | 0.00 | 74 | 1013.4 |
| 20260831103909 | 65 | 96 | 8.0 | 10.0 | 0.00 | 0.00 | 0.00 | 74 | 1013.2 |
| 20260831103408 | 65 | 95 | 8.0 | 10.0 | 0.00 | 0.00 | 0.00 | 74 | 1013.2 |
| 20260831102911 | 66 | 85 | 9.0 | 11.0 | 0.00 | 0.00 | 0.00 | 72 | 1013.4 |
| 20260831102907 | 66 | 86 | 8.0 | 11.0 | 0.00 | 0.00 | 0.00 | 73 | 1013.2 |
| 20260831101911 | 66 | 88 | 9.0 | 12.0 | 0.00 | 0.00 | 0.00 | 71 | 1013.2 |
| 20260831101907 | 66 | 86 | 9.0 | 12.0 | 0.00 | 0.00 | 0.00 | 72 | 1013.2 |
| 20260831100905 | 66 | 86 | 7.0 | 12.0 | 0.00 | 0.00 | 0.00 | 71 | 1013.4 |
| 20260831100409 | 66 | 45 | 5.0 | 9.0 | 0.00 | 0.00 | 0.00 | 69 | 1013.4 |
| 20260831100405 | 66 | 85 | 5.0 | 9.0 | 0.00 | 0.00 | 0.00 | 70 | 1013.4 |
| 20260831095406 | 66 | 53 | 5.0 | 9.0 | 0.00 | 0.00 | 0.00 | 68 | 1013.4 |
| 20260831094907 | 67 | 62 | 4.0 | 9.0 | 0.00 | 0.00 | 0.00 | 67 | 1013.2 |
| 20260831094407 | 67 | 65 | 2.0 | 5.0 | 0.00 | 0.00 | 0.00 | 67 | 1013.4 |
| 20260831094403 | 67 | 45 | 3.0 | 7.0 | 0.00 | 0.00 | 0.00 | 67 | 1013.2 |
| 20260831094012 | 67 | 56 | 2.0 | 5.0 | 0.00 | 0.00 | 0.00 | 66 | 1013.4 |
| 20260831092903 | 67 | 51 | 3.0 | 7.0 | 0.00 | 0.00 | 0.00 | 66 | 1013.4 |
| 20260831092403 | 67 | 52 | 4.0 | 8.0 | 0.00 | 0.00 | 0.00 | 66 | 1013.2 |
| 20260831091904 | 67 | 67 | 3.0 | 8.0 | 0.00 | 0.00 | 0.00 | 66 | 1013.1 |
| 20260831091404 | 67 | 53 | 2.0 | 5.0 | 0.00 | 0.00 | 0.00 | 66 | 1013.2 |
| 20260831090903 | 68 | 67 | 2.0 | 5.0 | 0.00 | 0.00 | 0.00 | 66 | 1013.4 |
| 20260831090404 | 68 | 69 | 1.0 | 3.0 | 0.00 | 0.00 | 0.00 | 65 | 1013.4 |
| 20260831085903 | 68 | 66 | 1.0 | 7.0 | 0.00 | 0.00 | 0.00 | 65 | 1013.4 |
| 20260831085407 | 69 | 67 | 5.0 | 7.0 | 0.00 | 0.00 | 0.00 | 64 | 1013.4 |
| 20260831085403 | 69 | 66 | 3.0 | 7.0 | 0.00 | 0.00 | 0.00 | 65 | 1013.5 |
| 20260831084404 | 69 | 42 | 6.0 | 9.0 | 0.00 | 0.00 | 0.00 | 63 | 1013.5 |
| 20260831083903 | 69 | 38 | 7.0 | 9.0 | 0.00 | 0.00 | 0.00 | 65 | 1013.5 |
| 20260831083404 | 69 | 34 | 7.0 | 9.0 | 0.00 | 0.00 | 0.00 | 64 | 1013.5 |
| 20260831082903 | 69 | 44 | 6.0 | 9.0 | 0.00 | 0.00 | 0.00 | 65 | 1013.5 |
| 20260831082403 | 70 | 36 | 6.0 | 8.0 | 0.00 | 0.00 | 0.00 | 66 | 1013.5 |
| 20260831081903 | 70 | 44 | 6.0 | 7.0 | 0.00 | 0.00 | 0.00 | 65 | 1013.5 |
| 20260831081408 | 71 | 46 | 6.0 | 7.0 | 0.00 | 0.00 | 0.00 | 67 | 1013.5 |
| 20260831081404 | 70 | 46 | 5.0 | 7.0 | 0.00 | 0.00 | 0.00 | 65 | 1013.5 |
| 20260831080407 | 71 | 46 | 6.0 | 7.0 | 0.00 | 0.00 | 0.00 | 67 | 1013.4 |
| 20260831080403 | 71 | 41 | 6.0 | 7.0 | 0.00 | 0.00 | 0.00 | 67 | 1013.4 |
| 20260831075403 | 71 | 46 | 6.0 | 7.0 | 0.00 | 0.00 | 0.00 | 67 | 1013.5 |
| 20260831074903 | 71 | 52 | 6.0 | 7.0 | 0.00 | 0.00 | 0.00 | 67 | 1013.4 |
| 20260831074403 | 71 | 57 | 6.0 | 7.0 | 0.00 | 0.00 | 0.00 | 67 | 1013.4 |
| 20260831073903 | 72 | 59 | 6.0 | 7.0 | 0.00 | 0.00 | 0.00 | 66 | 1013.2 |
| 20260831073407 | 72 | 52 | 5.0 | 6.0 | 0.00 | 0.00 | 0.00 | 67 | 1013.4 |
| 20260831073403 | 72 | 57 | 5.0 | 7.0 | 0.00 | 0.00 | 0.00 | 66 | 1013.4 |
| 20260831072402 | 72 | 52 | 4.0 | 6.0 | 0.00 | 0.00 | 0.00 | 66 | 1013.4 |
| 20260831071906 | 73 | 83 | 2.0 | 5.0 | 0.00 | 0.00 | 0.00 | 66 | 1013.4 |
| 20260831071902 | 73 | 72 | 3.0 | 5.0 | 0.00 | 0.00 | 0.00 | 66 | 1013.2 |
| 20260831070902 | 73 | 83 | 3.0 | 5.0 | 0.00 | 0.00 | 0.00 | 65 | 1013.5 |
| 20260831070402 | 73 | 36 | 3.0 | 4.0 | 0.00 | 0.00 | 0.00 | 64 | 1013.5 |
| 20260831065902 | 73 | 36 | 3.0 | 4.0 | 0.00 | 0.00 | 0.00 | 63 | 1013.5 |
| 20260831065402 | 73 | 36 | 3.0 | 5.0 | 0.00 | 0.00 | 0.00 | 63 | 1013.5 |
| 20260831064902 | 73 | 26 | 3.0 | 5.0 | 0.00 | 0.00 | 0.00 | 63 | 1013.5 |
| 20260831064402 | 72 | 12 | 3.0 | 4.0 | 0.00 | 0.00 | 0.00 | 63 | 1013.6 |
| 20260831063902 | 72 | 12 | 3.0 | 4.0 | 0.00 | 0.00 | 0.00 | 62 | 1013.5 |
| 20260831063359 | 73 | 12 | 3.0 | 4.0 | 0.00 | 0.00 | 0.00 | 62 | 1013.5 |
| 20260831062905 | 73 | 67 | 2.0 | 3.0 | 0.00 | 0.00 | 0.00 | 61 | 1013.6 |
| 20260831062859 | 73 | 67 | 2.0 | 3.0 | 0.00 | 0.00 | 0.00 | 61 | 1013.5 |
| 20260831061859 | 73 | 67 | 1.0 | 3.0 | 0.00 | 0.00 | 0.00 | 61 | 1013.5 |
| 20260831061359 | 73 | 67 | 1.0 | 3.0 | 0.00 | 0.00 | 0.00 | 61 | 1013.5 |
| 20260831060858 | 73 | 44 | 1.0 | 3.0 | 0.00 | 0.00 | 0.00 | 62 | 1013.4 |
| 20260831060358 | 73 | 44 | 2.0 | 4.0 | 0.00 | 0.00 | 0.00 | 61 | 1013.5 |
| 20260831055857 | 73 | 44 | 3.0 | 4.0 | 0.00 | 0.00 | 0.00 | 61 | 1013.5 |
| 20260831055356 | 73 | 44 | 2.0 | 4.0 | 0.00 | 0.00 | 0.00 | 61 | 1013.5 |
| 20260831054857 | 74 | 71 | 2.0 | 3.0 | 0.00 | 0.00 | 0.00 | 60 | 1013.6 |
| 20260831054357 | 74 | 70 | 2.0 | 3.0 | 0.00 | 0.00 | 0.00 | 61 | 1013.6 |
| 20260831053855 | 74 | 70 | 2.0 | 3.0 | 0.00 | 0.00 | 0.00 | 62 | 1013.6 |
| 20260831053354 | 74 | 70 | 2.0 | 3.0 | 0.00 | 0.00 | 0.00 | 62 | 1013.5 |
| 20260831052854 | 74 | 70 | 1.0 | 3.0 | 0.00 | 0.00 | 0.00 | 62 | 1013.5 |
| 20260831052355 | 74 | 71 | 1.0 | 2.0 | 0.00 | 0.00 | 0.00 | 60 | 1013.5 |
| 20260831051854 | 74 | 70 | 2.0 | 3.0 | 0.00 | 0.00 | 0.00 | 59 | 1013.5 |
| 20260831051352 | 74 | 70 | 2.0 | 3.0 | 0.00 | 0.00 | 0.00 | 59 | 1013.5 |
| 20260831050853 | 74 | 70 | 1.0 | 3.0 | 0.00 | 0.00 | 0.00 | 57 | 1013.5 |
| 20260831050353 | 74 | 23 | 0.0 | 2.0 | 0.00 | 0.00 | 0.00 | 51 | 1013.6 |
| 20260831045851 | 74 | 11 | 0.0 | 0.0 | 0.00 | 0.00 | 0.00 | 51 | 1013.5 |
| 20260831045351 | 74 | 11 | 1.0 | 2.0 | 0.00 | 0.00 | 0.00 | 55 | 1013.5 |
| 20260831044850 | 74 | 11 | 2.0 | 4.0 | 0.00 | 0.00 | 0.00 | 64 | 1013.5 |
| 20260831044350 | 73 | 5 | 3.0 | 4.0 | 0.00 | 0.00 | 0.00 | 65 | 1013.5 |
| 20260831043851 | 73 | 5 | 3.0 | 4.0 | 0.00 | 0.00 | 0.00 | 65 | 1013.5 |
| 20260831043352 | 74 | 5 | 3.0 | 4.0 | 0.00 | 0.00 | 0.00 | 64 | 1013.5 |
| 20260831042856 | 74 | 33 | 2.0 | 3.0 | 0.00 | 0.00 | 0.00 | 64 | 1013.4 |
| 20260831042852 | 74 | 5 | 2.0 | 4.0 | 0.00 | 0.00 | 0.00 | 65 | 1013.4 |
| 20260831041851 | 74 | 80 | 2.0 | 4.0 | 0.00 | 0.00 | 0.00 | 63 | 1013.4 |
| 20260831041644 | 75 | 190 | 0.0 | 1.0 | 0.00 | 0.00 | 0.00 | 59 | 1013.2 |
| 20260831041636 | 74 | 186 | 1.0 | 4.0 | 0.00 | 0.00 | 0.00 | 64 | 1013.2 |
| 20260831040351 | 75 | 190 | 0.0 | 1.0 | 0.00 | 0.00 | 0.00 | 59 | 1013.1 |
| 20260831035856 | 75 | 190 | 0.0 | 1.0 | 0.00 | 0.00 | 0.00 | 58 | 1013.1 |
| 20260831035852 | 75 | 190 | 0.0 | 1.0 | 0.00 | 0.00 | 0.00 | 59 | 1013.0 |
| 20260831034852 | 76 | 190 | 0.0 | 2.0 | 0.00 | 0.00 | 0.00 | 56 | 1013.0 |
| 20260831034352 | 76 | 190 | 2.0 | 4.0 | 0.00 | 0.00 | 0.00 | 56 | 1012.8 |
| 20260831033851 | 76 | 190 | 3.0 | 4.0 | 0.00 | 0.00 | 0.00 | 55 | 1012.7 |
| 20260831033351 | 76 | 190 | 3.0 | 4.0 | 0.00 | 0.00 | 0.00 | 54 | 1012.6 |
| 20260831032856 | 76 | 190 | 1.0 | 3.0 | 0.00 | 0.00 | 0.00 | 52 | 1012.5 |
| 20260831032852 | 76 | 190 | 2.0 | 3.0 | 0.00 | 0.00 | 0.00 | 54 | 1012.6 |
| 20260831031851 | 76 | 186 | 0.0 | 6.0 | 0.00 | 0.00 | 0.00 | 56 | 1012.6 |
| 20260831031351 | 76 | 186 | 2.0 | 6.0 | 0.00 | 0.00 | 0.00 | 57 | 1012.6 |
| 20260831030851 | 76 | 186 | 4.0 | 6.0 | 0.00 | 0.00 | 0.00 | 55 | 1012.5 |
| 20260831030351 | 76 | 194 | 5.0 | 6.0 | 0.00 | 0.00 | 0.00 | 53 | 1012.4 |
| 20260831025854 | 76 | 209 | 4.0 | 6.0 | 0.00 | 0.00 | 0.00 | 53 | 1012.4 |
| 20260831025850 | 76 | 219 | 5.0 | 6.0 | 0.00 | 0.00 | 0.00 | 52 | 1012.3 |
| 20260831024848 | 76 | 221 | 4.0 | 6.0 | 0.00 | 0.00 | 0.00 | 53 | 1012.4 |
| 20260831024348 | 76 | 230 | 4.0 | 6.0 | 0.00 | 0.00 | 0.00 | 59 | 1012.4 |
| 20260831023852 | 76 | 227 | 5.0 | 6.0 | 0.00 | 0.00 | 0.00 | 62 | 1012.4 |
| 20260831023848 | 76 | 226 | 4.0 | 6.0 | 0.00 | 0.00 | 0.00 | 60 | 1012.5 |
| 20260831022848 | 76 | 222 | 4.0 | 6.0 | 0.00 | 0.00 | 0.00 | 63 | 1012.4 |
| 20260831022350 | 76 | 207 | 4.0 | 6.0 | 0.00 | 0.00 | 0.00 | 61 | 1012.3 |
| 20260831022346 | 76 | 221 | 4.0 | 6.0 | 0.00 | 0.00 | 0.00 | 62 | 1012.3 |
| 20260831021350 | 77 | 236 | 4.0 | 7.0 | 0.00 | 0.00 | 0.00 | 61 | 1012.4 |
| 20260831021346 | 77 | 225 | 3.0 | 5.0 | 0.00 | 0.00 | 0.00 | 58 | 1012.4 |
| 20260831020346 | 77 | 244 | 4.0 | 7.0 | 0.00 | 0.00 | 0.00 | 58 | 1012.3 |
| 20260831015846 | 78 | 247 | 4.0 | 8.0 | 0.00 | 0.00 | 0.00 | 59 | 1012.2 |
| 20260831015347 | 79 | 246 | 4.0 | 8.0 | 0.00 | 0.00 | 0.00 | 58 | 1012.2 |
| 20260831014847 | 79 | 279 | 5.0 | 8.0 | 0.00 | 0.00 | 0.00 | 59 | 1012.4 |
| 20260831014345 | 79 | 267 | 5.0 | 8.0 | 0.00 | 0.00 | 0.00 | 58 | 1012.3 |
| 20260831013847 | 79 | 261 | 4.0 | 8.0 | 0.00 | 0.00 | 0.00 | 58 | 1012.4 |
| 20260831013346 | 79 | 235 | 3.0 | 8.0 | 0.00 | 0.00 | 0.00 | 56 | 1012.4 |
| 20260831012846 | 79 | 224 | 4.0 | 9.0 | 0.00 | 0.00 | 0.00 | 55 | 1012.4 |
| 20260831012346 | 78 | 242 | 6.0 | 9.0 | 0.00 | 0.00 | 0.00 | 53 | 1012.4 |
| 20260831011846 | 78 | 229 | 6.0 | 8.0 | 0.00 | 0.00 | 0.00 | 53 | 1012.4 |
| 20260831011351 | 79 | 236 | 5.0 | 8.0 | 0.00 | 0.00 | 0.00 | 51 | 1012.4 |
| 20260831011346 | 79 | 229 | 6.0 | 8.0 | 0.00 | 0.00 | 0.00 | 51 | 1012.4 |
| 20260831010350 | 78 | 247 | 5.0 | 8.0 | 0.00 | 0.00 | 0.00 | 57 | 1012.4 |
| 20260831010345 | 78 | 222 | 5.0 | 7.0 | 0.00 | 0.00 | 0.00 | 53 | 1012.4 |
| 20260831005344 | 78 | 238 | 6.0 | 8.0 | 0.00 | 0.00 | 0.00 | 56 | 1012.4 |
| 20260831004848 | 78 | 229 | 5.0 | 7.0 | 0.00 | 0.00 | 0.00 | 58 | 1012.4 |
| 20260831004844 | 78 | 234 | 5.0 | 8.0 | 0.00 | 0.00 | 0.00 | 58 | 1012.5 |
| 20260831003849 | 79 | 227 | 5.0 | 8.0 | 0.00 | 0.00 | 0.00 | 52 | 1012.4 |
| 20260831003844 | 79 | 232 | 5.0 | 8.0 | 0.00 | 0.00 | 0.00 | 57 | 1012.5 |
| 20260831002844 | 80 | 252 | 6.0 | 8.0 | 0.00 | 0.00 | 0.00 | 51 | 1012.5 |
| 20260831002344 | 79 | 223 | 6.0 | 8.0 | 0.00 | 0.00 | 0.00 | 49 | 1012.5 |
| 20260831001845 | 78 | 205 | 6.0 | 8.0 | 0.00 | 0.00 | 0.00 | 51 | 1012.5 |
| 20260831001344 | 78 | 223 | 5.0 | 8.0 | 0.00 | 0.00 | 0.00 | 55 | 1012.4 |
| 20260831000843 | 77 | 238 | 5.0 | 7.0 | 0.00 | 0.00 | 0.00 | 57 | 1012.5 |
| 20260831000342 | 78 | 237 | 5.0 | 7.0 | 0.00 | 0.00 | 0.00 | 51 | 1012.4 |
| 20260830235841 | 79 | 232 | 5.0 | 7.0 | 0.00 | 0.00 | 0.00 | 51 | 1012.5 |
| 20260830235342 | 79 | 226 | 5.0 | 7.0 | 0.00 | 0.00 | 0.00 | 53 | 1012.5 |
| 20260830234840 | 79 | 203 | 4.0 | 6.0 | 0.00 | 0.00 | 0.00 | 57 | 1012.5 |
| 20260830234340 | 79 | 238 | 4.0 | 6.0 | 0.00 | 0.00 | 0.00 | 55 | 1012.5 |
| 20260830233839 | 78 | 225 | 4.0 | 7.0 | 0.00 | 0.00 | 0.00 | 58 | 1012.6 |
| 20260830233340 | 78 | 242 | 5.0 | 7.0 | 0.00 | 0.00 | 0.00 | 60 | 1012.5 |
| 20260830232840 | 77 | 247 | 5.0 | 7.0 | 0.00 | 0.00 | 0.00 | 61 | 1012.6 |
| 20260830232343 | 77 | 242 | 5.0 | 7.0 | 0.00 | 0.00 | 0.00 | 62 | 1012.6 |
| 20260830232339 | 78 | 219 | 4.0 | 7.0 | 0.00 | 0.00 | 0.00 | 60 | 1012.6 |
| 20260830231340 | 80 | 232 | 4.0 | 6.0 | 0.00 | 0.00 | 0.00 | 59 | 1012.7 |
| 20260830231336 | 79 | 236 | 4.0 | 6.0 | 0.00 | 0.00 | 0.00 | 60 | 1012.7 |
| 20260830230334 | 80 | 227 | 3.0 | 6.0 | 0.00 | 0.00 | 0.00 | 57 | 1012.7 |
| 20260830225834 | 80 | 236 | 3.0 | 6.0 | 0.00 | 0.00 | 0.00 | 59 | 1012.8 |
| 20260830225332 | 79 | 214 | 3.0 | 5.0 | 0.00 | 0.00 | 0.00 | 60 | 1012.8 |
| 20260830224831 | 79 | 227 | 3.0 | 6.0 | 0.00 | 0.00 | 0.00 | 60 | 1012.8 |
| 20260830224331 | 80 | 227 | 3.0 | 6.0 | 0.00 | 0.00 | 0.00 | 56 | 1012.9 |
| 20260830223832 | 80 | 221 | 4.0 | 7.0 | 0.00 | 0.00 | 0.00 | 52 | 1012.9 |
| 20260830223335 | 80 | 220 | 4.0 | 7.0 | 0.00 | 0.00 | 0.00 | 56 | 1013.1 |
| 20260830223331 | 80 | 234 | 4.0 | 7.0 | 0.00 | 0.00 | 0.00 | 59 | 1013.0 |
| 20260830222336 | 80 | 212 | 4.0 | 9.0 | 0.00 | 0.00 | 0.00 | 61 | 1013.4 |
| 20260830222332 | 80 | 242 | 4.0 | 7.0 | 0.00 | 0.00 | 0.00 | 56 | 1013.2 |
| 20260830221938 | 80 | 186 | 4.0 | 9.0 | 0.00 | 0.00 | 0.00 | 54 | 1013.4 |
| 20260830220832 | 79 | 214 | 4.0 | 9.0 | 0.00 | 0.00 | 0.00 | 59 | 1013.4 |
| 20260830220332 | 79 | 193 | 4.0 | 9.0 | 0.00 | 0.00 | 0.00 | 60 | 1013.4 |
| 20260830215831 | 79 | 192 | 4.0 | 8.0 | 0.00 | 0.00 | 0.00 | 61 | 1013.6 |
| 20260830215332 | 78 | 219 | 5.0 | 8.0 | 0.00 | 0.00 | 0.00 | 62 | 1013.5 |
| 20260830214831 | 78 | 178 | 6.0 | 9.0 | 0.00 | 0.00 | 0.00 | 62 | 1013.6 |
| 20260830214331 | 79 | 202 | 6.0 | 10.0 | 0.00 | 0.00 | 0.00 | 60 | 1013.7 |
| 20260830213832 | 80 | 201 | 6.0 | 11.0 | 0.00 | 0.00 | 0.00 | 61 | 1013.8 |
| 20260830213332 | 80 | 176 | 6.0 | 11.0 | 0.00 | 0.00 | 0.00 | 59 | 1013.8 |
| 20260830212831 | 79 | 183 | 6.0 | 12.0 | 0.00 | 0.00 | 0.00 | 59 | 1013.9 |
| 20260830212331 | 79 | 209 | 6.0 | 12.0 | 0.00 | 0.00 | 0.00 | 61 | 1013.9 |
| 20260830211832 | 79 | 159 | 6.0 | 10.0 | 0.00 | 0.00 | 0.00 | 59 | 1013.8 |
| 20260830211332 | 79 | 146 | 5.0 | 10.0 | 0.00 | 0.00 | 0.00 | 62 | 1013.9 |
| 20260830210832 | 78 | 180 | 5.0 | 9.0 | 0.00 | 0.00 | 0.00 | 65 | 1014.0 |
| 20260830210332 | 78 | 203 | 4.0 | 9.0 | 0.00 | 0.00 | 0.00 | 61 | 1014.1 |
| 20260830205832 | 78 | 182 | 5.0 | 10.0 | 0.00 | 0.00 | 0.00 | 64 | 1014.1 |
| 20260830205332 | 78 | 190 | 5.0 | 10.0 | 0.00 | 0.00 | 0.00 | 60 | 1014.1 |
| 20260830204831 | 78 | 186 | 6.0 | 10.0 | 0.00 | 0.00 | 0.00 | 65 | 1014.1 |
| 20260830204335 | 78 | 165 | 7.0 | 12.0 | 0.00 | 0.00 | 0.00 | 62 | 1014.2 |
| 20260830204331 | 78 | 190 | 7.0 | 12.0 | 0.00 | 0.00 | 0.00 | 62 | 1014.2 |
| 20260830203938 | 80 | 169 | 5.0 | 11.0 | 0.00 | 0.00 | 0.00 | 60 | 1014.2 |
| 20260830202831 | 80 | 172 | 4.0 | 7.0 | 0.00 | 0.00 | 0.00 | 63 | 1014.2 |
| 20260830202335 | 80 | 209 | 5.0 | 10.0 | 0.00 | 0.00 | 0.00 | 61 | 1014.3 |
| 20260830202331 | 80 | 196 | 4.0 | 9.0 | 0.00 | 0.00 | 0.00 | 61 | 1014.3 |
| 20260830201938 | 79 | 160 | 5.0 | 10.0 | 0.00 | 0.00 | 0.00 | 59 | 1014.3 |
| 20260830200830 | 79 | 158 | 4.0 | 9.0 | 0.00 | 0.00 | 0.00 | 60 | 1014.3 |
| 20260830200329 | 79 | 202 | 5.0 | 9.0 | 0.00 | 0.00 | 0.00 | 62 | 1014.3 |
| 20260830195830 | 79 | 185 | 5.0 | 9.0 | 0.00 | 0.00 | 0.00 | 63 | 1014.3 |
| 20260830195333 | 79 | 171 | 5.0 | 11.0 | 0.00 | 0.00 | 0.00 | 63 | 1014.3 |
| 20260830195329 | 79 | 174 | 5.0 | 9.0 | 0.00 | 0.00 | 0.00 | 62 | 1014.3 |
| 20260830194937 | 78 | 132 | 5.0 | 11.0 | 0.00 | 0.00 | 0.00 | 61 | 1014.4 |
| 20260830194438 | 77 | 212 | 5.0 | 11.0 | 0.00 | 0.00 | 0.00 | 59 | 1014.4 |
| 20260830193329 | 77 | 150 | 6.0 | 11.0 | 0.00 | 0.00 | 0.00 | 67 | 1014.4 |
| 20260830192831 | 78 | 198 | 6.0 | 11.0 | 0.00 | 0.00 | 0.00 | 63 | 1014.4 |
| 20260830192331 | 78 | 170 | 5.0 | 10.0 | 0.00 | 0.00 | 0.00 | 63 | 1014.4 |
| 20260830191830 | 79 | 177 | 4.0 | 8.0 | 0.00 | 0.00 | 0.00 | 66 | 1014.5 |
| 20260830191329 | 79 | 184 | 4.0 | 9.0 | 0.00 | 0.00 | 0.00 | 64 | 1014.5 |
| 20260830190829 | 78 | 176 | 5.0 | 9.0 | 0.00 | 0.00 | 0.00 | 63 | 1014.5 |
| 20260830190329 | 78 | 147 | 5.0 | 9.0 | 0.00 | 0.00 | 0.00 | 65 | 1014.5 |
| 20260830185829 | 78 | 155 | 5.0 | 11.0 | 0.00 | 0.00 | 0.00 | 64 | 1014.5 |
| 20260830185329 | 78 | 122 | 4.0 | 11.0 | 0.00 | 0.00 | 0.00 | 63 | 1014.5 |
| 20260830184834 | 78 | 146 | 4.0 | 11.0 | 0.00 | 0.00 | 0.00 | 64 | 1014.5 |
| 20260830184830 | 78 | 126 | 4.0 | 11.0 | 0.00 | 0.00 | 0.00 | 62 | 1014.5 |
| 20260830183829 | 78 | 104 | 4.0 | 9.0 | 0.00 | 0.00 | 0.00 | 67 | 1014.5 |
| 20260830183327 | 78 | 131 | 4.0 | 11.0 | 0.00 | 0.00 | 0.00 | 66 | 1014.5 |
| 20260830182827 | 78 | 98 | 4.0 | 11.0 | 0.00 | 0.00 | 0.00 | 64 | 1014.5 |
| 20260830182327 | 78 | 148 | 4.0 | 9.0 | 0.00 | 0.00 | 0.00 | 66 | 1014.6 |
| 20260830181827 | 78 | 132 | 4.0 | 9.0 | 0.00 | 0.00 | 0.00 | 67 | 1014.5 |
| 20260830181326 | 77 | 126 | 5.0 | 9.0 | 0.00 | 0.00 | 0.00 | 69 | 1014.5 |
| 20260830180827 | 77 | 144 | 5.0 | 9.0 | 0.00 | 0.00 | 0.00 | 64 | 1014.5 |
| 20260830180327 | 77 | 127 | 4.0 | 9.0 | 0.00 | 0.00 | 0.00 | 67 | 1014.5 |
| 20260830175827 | 77 | 117 | 5.0 | 10.0 | 0.00 | 0.00 | 0.00 | 68 | 1014.5 |
| 20260830175327 | 77 | 109 | 6.0 | 11.0 | 0.00 | 0.00 | 0.00 | 67 | 1014.5 |
| 20260830174826 | 77 | 133 | 6.0 | 11.0 | 0.00 | 0.00 | 0.00 | 69 | 1014.4 |
| 20260830174325 | 76 | 121 | 5.0 | 10.0 | 0.00 | 0.00 | 0.00 | 70 | 1014.4 |
| 20260830173829 | 76 | 90 | 5.0 | 11.0 | 0.00 | 0.00 | 0.00 | 69 | 1014.4 |
| 20260830173824 | 76 | 88 | 5.0 | 11.0 | 0.00 | 0.00 | 0.00 | 70 | 1014.3 |
| 20260830172825 | 76 | 110 | 5.0 | 10.0 | 0.00 | 0.00 | 0.00 | 70 | 1014.3 |
| 20260830172325 | 77 | 129 | 4.0 | 10.0 | 0.00 | 0.00 | 0.00 | 69 | 1014.3 |
| 20260830171825 | 77 | 133 | 5.0 | 10.0 | 0.00 | 0.00 | 0.00 | 70 | 1014.3 |
| 20260830171325 | 78 | 142 | 5.0 | 10.0 | 0.00 | 0.00 | 0.00 | 68 | 1014.2 |
| 20260830170824 | 78 | 131 | 6.0 | 12.0 | 0.00 | 0.00 | 0.00 | 67 | 1014.2 |
| 20260830170325 | 78 | 121 | 7.0 | 12.0 | 0.00 | 0.00 | 0.00 | 62 | 1014.2 |
| 20260830165824 | 78 | 80 | 5.0 | 10.0 | 0.00 | 0.00 | 0.00 | 62 | 1014.1 |
| 20260830165323 | 78 | 135 | 5.0 | 10.0 | 0.00 | 0.00 | 0.00 | 64 | 1014.1 |
| 20260830164823 | 78 | 127 | 5.0 | 10.0 | 0.00 | 0.00 | 0.00 | 65 | 1014.1 |
| 20260830164323 | 77 | 90 | 7.0 | 12.0 | 0.00 | 0.00 | 0.00 | 64 | 1014.1 |
| 20260830163822 | 76 | 103 | 10.0 | 14.0 | 0.00 | 0.00 | 0.00 | 63 | 1014.1 |
| 20260830163326 | 77 | 105 | 8.0 | 16.0 | 0.00 | 0.00 | 0.00 | 62 | 1014.0 |
| 20260830163322 | 76 | 89 | 10.0 | 16.0 | 0.00 | 0.00 | 0.00 | 63 | 1014.0 |
| 20260830162323 | 77 | 94 | 7.0 | 11.0 | 0.00 | 0.00 | 0.00 | 61 | 1014.1 |
| 20260830161823 | 77 | 86 | 6.0 | 11.0 | 0.00 | 0.00 | 0.00 | 60 | 1014.0 |
| 20260830161322 | 77 | 116 | 5.0 | 9.0 | 0.00 | 0.00 | 0.00 | 62 | 1014.1 |
| 20260830160822 | 77 | 99 | 4.0 | 9.0 | 0.00 | 0.00 | 0.00 | 62 | 1014.1 |
| 20260830160322 | 76 | 51 | 4.0 | 7.0 | 0.00 | 0.00 | 0.00 | 62 | 1014.0 |
| 20260830155819 | 76 | 53 | 4.0 | 7.0 | 0.00 | 0.00 | 0.00 | 66 | 1014.0 |
| 20260830155319 | 75 | 51 | 5.0 | 10.0 | 0.00 | 0.00 | 0.00 | 65 | 1014.0 |
| 20260830154821 | 74 | 58 | 4.0 | 10.0 | 0.00 | 0.00 | 0.00 | 67 | 1014.0 |
| 20260830154817 | 73 | 93 | 3.0 | 6.0 | 0.00 | 0.00 | 0.00 | 67 | 1014.0 |
| 20260830153816 | 73 | 55 | 4.0 | 9.0 | 0.00 | 0.00 | 0.00 | 68 | 1014.1 |
| 20260830153317 | 72 | 62 | 5.0 | 9.0 | 0.00 | 0.00 | 0.00 | 69 | 1013.9 |
| 20260830152816 | 72 | 47 | 6.0 | 10.0 | 0.00 | 0.00 | 0.00 | 69 | 1013.9 |
| 20260830152314 | 72 | 39 | 7.0 | 10.0 | 0.00 | 0.00 | 0.00 | 69 | 1013.9 |
| 20260830151815 | 72 | 49 | 7.0 | 10.0 | 0.00 | 0.00 | 0.00 | 69 | 1013.9 |
| 20260830151319 | 72 | 59 | 7.0 | 10.0 | 0.00 | 0.00 | 0.00 | 69 | 1014.0 |
| 20260830151315 | 72 | 49 | 8.0 | 10.0 | 0.00 | 0.00 | 0.00 | 71 | 1014.0 |
| 20260830150315 | 72 | 76 | 7.0 | 10.0 | 0.00 | 0.00 | 0.00 | 69 | 1014.1 |
| 20260830145815 | 72 | 58 | 7.0 | 10.0 | 0.00 | 0.00 | 0.00 | 68 | 1014.0 |
| 20260830145315 | 72 | 64 | 8.0 | 11.0 | 0.00 | 0.00 | 0.00 | 68 | 1013.9 |
| 20260830144815 | 73 | 40 | 8.0 | 12.0 | 0.00 | 0.00 | 0.00 | 66 | 1013.9 |
| 20260830144315 | 73 | 58 | 9.0 | 12.0 | 0.00 | 0.00 | 0.00 | 66 | 1013.8 |
| 20260830143814 | 72 | 72 | 9.0 | 12.0 | 0.00 | 0.00 | 0.00 | 66 | 1013.8 |
| 20260830143314 | 72 | 80 | 9.0 | 11.0 | 0.00 | 0.00 | 0.00 | 66 | 1013.8 |
| 20260830142814 | 72 | 84 | 8.0 | 11.0 | 0.00 | 0.00 | 0.00 | 67 | 1013.8 |
| 20260830142314 | 72 | 81 | 9.0 | 12.0 | 0.00 | 0.00 | 0.00 | 66 | 1013.9 |
| 20260830141814 | 72 | 99 | 10.0 | 12.0 | 0.00 | 0.00 | 0.00 | 66 | 1013.8 |
| 20260830141312 | 72 | 96 | 10.0 | 12.0 | 0.00 | 0.00 | 0.00 | 66 | 1013.7 |
| 20260830140813 | 72 | 91 | 9.0 | 11.0 | 0.00 | 0.00 | 0.00 | 65 | 1013.8 |
| 20260830140313 | 73 | 92 | 9.0 | 11.0 | 0.00 | 0.00 | 0.00 | 66 | 1013.7 |
| 20260830135812 | 73 | 93 | 10.0 | 12.0 | 0.00 | 0.00 | 0.00 | 62 | 1013.7 |
| 20260830135312 | 73 | 88 | 11.0 | 14.0 | 0.00 | 0.00 | 0.00 | 62 | 1013.6 |
| 20260830134812 | 73 | 88 | 12.0 | 15.0 | 0.00 | 0.00 | 0.00 | 61 | 1013.5 |
| 20260830134312 | 74 | 86 | 12.0 | 15.0 | 0.00 | 0.00 | 0.00 | 61 | 1013.4 |
| 20260830133815 | 74 | 84 | 11.0 | 13.0 | 0.00 | 0.00 | 0.00 | 61 | 1013.2 |
| 20260830133811 | 74 | 86 | 12.0 | 14.0 | 0.00 | 0.00 | 0.00 | 61 | 1013.5 |
| 20260830132810 | 74 | 80 | 10.0 | 12.0 | 0.00 | 0.00 | 0.00 | 60 | 1013.2 |